Regional Weather Roundup
Issued by NWS Cleveland, OH

Home | Current Version | Previous Version | Text Only | Print | Product List | Glossary Off
Versions: 1 2 3 4 5 6 7 8 9 10 11 12 13 14 15 16 17 18 19 20 21 22 23 24 25 26 27 28 29 30 31 32 33 34 35 36 37 38 39 40 41 42 43 44 45 46 47 48 49 50

000
ASUS41 KCLE 292002
RWRCLE
OHIO REGIONAL WEATHER ROUNDUP
NATIONAL WEATHER SERVICE CLEVELAND, OH
300 PM EST THU JAN 29 2015

NOTE: "FAIR" INDICATES FEW OR NO CLOUDS BELOW 12,000 FEET WITH NO
SIGNIFICANT WEATHER AND/OR OBSTRUCTIONS TO VISIBILITY.

OHZ001>008-015>018-024>027-034-035-043-044-292100-
   NORTHWEST OHIO

CITY           SKY/WX    TMP DP  RH WIND       PRES   REMARKS
DEFIANCE       LGT SNOW  35  31  85 NW13      29.79R FOG     WCI  26
FINDLAY        CLOUDY    37  34  89 W18       29.74R FOG
TOLEDO EXPRESS CLOUDY    34  32  92 W8        29.74R WCI  27
TOLEDO EXEC    CLOUDY    35  32  88 W9        29.75R FOG     WCI  28
LIMA           FOG       37  35  92 W21G26    29.77R VSB 1
$$

OHZ009>014-019>023-028>033-038-089-292100-
   NORTHEAST OHIO

CITY           SKY/WX    TMP DP  RH WIND       PRES   REMARKS
CLE-HOPKINS    DRIZZLE   37  31  78 S12       29.75S
CLE-LAKEFRONT  LGT RAIN  38  31  76 S16G24    29.72F
CUY CO. ARPT   FLURRIES  37  32  81 S14G23    29.72F
LORAIN-ELYRIA  CLOUDY    38  32  79 SW14      29.72S
ASHTABULA      LGT SNOW  33  31  92 S12       29.74S VSB 1   WCI  24
AKRON-CANTON   CLOUDY    37  30  75 SW14      29.74F
WOOSTER        CLOUDY    35  31  85 S12       29.74F WCI  27
MANSFIELD      CLOUDY    40  33  76 SW15      29.72S
YOUNGSTOWN     LGT SNOW  34  31  88 S9        29.75F WCI  27
$$

OHZ042-051>053-060>062-070>072-077>081-292100-
  SOUTHWEST OHIO

CITY           SKY/WX    TMP DP  RH WIND       PRES   REMARKS
CINC-COVINGTON CLOUDY    41  33  73 W22G35    29.90R
CINC-LUNKEN    CLOUDY    44  36  73 W17G30    29.91R
HAMILTON       CLOUDY    40  33  76 W17G37    29.91R
DAYTON         CLOUDY    37  34  89 W21G36    29.84R
WRIGHT-PAT AFB CLOUDY    38  35  87 W22G30    29.83R FOG
DAYTON GENERAL CLOUDY    38  34  85 W18G30    29.85R
WILMINGTON     CLOUDY    42  35  76 W20G30    29.83R
$$

OHZ036-037-039>041-045>050-054>059-063>069-073>076-082>088-292100-
  CENTRAL AND SOUTHEAST OHIO

CITY           SKY/WX    TMP DP  RH WIND       PRES   REMARKS
COLUMBUS       CLOUDY    40  33  76 SW10      29.77F
OSU AIRPORT    CLOUDY    40  34  79 SW9       29.77R
BOLTON FIELD   CLOUDY    41  36  81 SW14G20   29.78S
RICKENBACK AFB CLOUDY    42  35  78 SW13      29.78R
NEWARK         CLOUDY    40  32  73 S5        29.76F
MARION         CLOUDY    37  32  82 SW13      29.75R HAZE
LANCASTER      CLOUDY    44  36  73 SW9G17    29.79S
ZANESVILLE     CLOUDY    38  31  76 S7        29.79F
NEW PHILLY     CLOUDY    39  31  72 S14G20    29.79F
$$


USA.gov is the U.S. government's official web portal to all federal, state and local government web resources and services.